TimeMDT,TemperatureF,Dew PointF,Humidity,Sea Level PressureIn,VisibilityMPH,Wind Direction,Wind SpeedMPH,Gust SpeedMPH,PrecipitationIn,Events,Conditions,WindDirDegrees,DateUTC
12:08 AM,50.0,48.2,94,29.83,10.0,ESE,9.2,-,N/A,,Overcast,110,2013-05-28 06:08:00
12:33 AM,50.0,50.0,100,29.84,10.0,SSE,2.3,-,N/A,,Overcast,160,2013-05-28 06:33:00
12:58 AM,51.3,49.8,95,29.80,10.0,NNW,2.3,-,N/A,,Overcast,330,2013-05-28 06:58:00
1:23 AM,51.8,48.2,88,29.82,8.0,NNE,3.5,-,N/A,Rain,Light Rain,20,2013-05-28 07:23:00
1:33 AM,51.8,50.0,94,29.82,9.0,North,3.5,-,N/A,Rain,Light Rain,10,2013-05-28 07:33:00
1:38 AM,51.8,50.0,94,29.82,10.0,North,3.5,-,N/A,Rain,Light Rain,360,2013-05-28 07:38:00
1:58 AM,52.5,49.5,89,29.80,10.0,WNW,4.6,-,0.01,,Overcast,290,2013-05-28 07:58:00
2:58 AM,51.6,50.5,96,29.78,9.0,WNW,2.3,-,0.01,Rain,Light Rain,300,2013-05-28 08:58:00
3:18 AM,51.8,50.0,94,29.81,10.0,NW,4.6,-,N/A,Rain,Light Rain,320,2013-05-28 09:18:00
3:23 AM,51.8,50.0,94,29.81,10.0,WNW,4.6,-,N/A,Rain,Light Rain,300,2013-05-28 09:23:00
3:28 AM,51.8,50.0,94,29.81,10.0,WNW,4.6,-,N/A,Rain,Light Rain,300,2013-05-28 09:28:00
3:48 AM,51.8,50.0,94,29.81,10.0,NW,3.5,-,N/A,,Overcast,320,2013-05-28 09:48:00
3:53 AM,51.8,50.0,94,29.80,10.0,NW,2.3,-,N/A,,Overcast,320,2013-05-28 09:53:00
3:58 AM,51.8,50.5,95,29.76,10.0,NNW,2.3,-,0.01,,Overcast,330,2013-05-28 09:58:00
4:03 AM,51.8,50.0,94,29.80,10.0,NNW,3.5,-,N/A,,Overcast,330,2013-05-28 10:03:00
4:23 AM,51.8,50.0,94,29.80,10.0,NW,5.8,-,N/A,,Overcast,310,2013-05-28 10:23:00
4:58 AM,51.4,50.0,95,29.76,10.0,NNW,4.6,-,N/A,,Overcast,340,2013-05-28 10:58:00
5:48 AM,50.0,50.0,100,29.80,10.0,WNW,4.6,-,N/A,,Overcast,290,2013-05-28 11:48:00
5:58 AM,50.7,50.4,99,29.78,10.0,WNW,5.8,-,N/A,,Overcast,290,2013-05-28 11:58:00
6:38 AM,50.0,50.0,100,29.80,10.0,West,6.9,-,N/A,,Overcast,280,2013-05-28 12:38:00
6:43 AM,50.0,50.0,100,29.80,10.0,West,6.9,-,N/A,,Overcast,270,2013-05-28 12:43:00
6:58 AM,50.2,49.8,99,29.78,10.0,NW,8.1,-,N/A,,Overcast,310,2013-05-28 12:58:00
7:48 AM,50.0,48.2,94,29.81,10.0,NNW,12.7,-,N/A,,Overcast,330,2013-05-28 13:48:00
7:58 AM,50.9,47.8,89,29.80,10.0,NNW,12.7,-,N/A,,Overcast,330,2013-05-28 13:58:00
8:18 AM,51.8,46.4,82,29.81,10.0,NW,15.0,-,N/A,,Overcast,320,2013-05-28 14:18:00
8:28 AM,51.8,46.4,82,29.81,10.0,NNW,16.1,-,N/A,,Overcast,330,2013-05-28 14:28:00
8:58 AM,54.1,46.4,75,29.79,10.0,NW,16.1,-,N/A,,Overcast,320,2013-05-28 14:58:00
9:13 AM,53.6,44.6,72,29.82,10.0,NW,16.1,-,N/A,,Overcast,310,2013-05-28 15:13:00
9:23 AM,55.4,44.6,67,29.82,10.0,NW,16.1,-,N/A,,Mostly Cloudy,310,2013-05-28 15:23:00
9:28 AM,55.4,46.4,72,29.82,10.0,NW,17.3,-,N/A,,Mostly Cloudy,320,2013-05-28 15:28:00
9:38 AM,53.6,44.6,72,29.83,10.0,NW,17.3,-,N/A,,Mostly Cloudy,310,2013-05-28 15:38:00
9:53 AM,55.4,44.6,67,29.83,10.0,NW,18.4,-,N/A,,Overcast,320,2013-05-28 15:53:00
9:58 AM,54.7,44.2,68,29.82,10.0,NW,17.3,-,N/A,,Overcast,310,2013-05-28 15:58:00
10:18 AM,53.6,44.6,72,29.84,10.0,NW,18.4,-,N/A,,Overcast,310,2013-05-28 16:18:00
10:23 AM,53.6,42.8,67,29.84,10.0,NW,18.4,-,N/A,,Overcast,310,2013-05-28 16:23:00
10:58 AM,53.6,43.9,70,29.83,10.0,NW,19.6,-,N/A,,Overcast,310,2013-05-28 16:58:00
11:03 AM,53.6,44.6,72,29.84,10.0,NW,20.7,-,N/A,,Overcast,310,2013-05-28 17:03:00
11:08 AM,53.6,44.6,72,29.84,10.0,NW,19.6,-,N/A,,Overcast,310,2013-05-28 17:08:00
11:58 AM,56.5,43.5,62,29.83,10.0,NW,20.7,26.5,N/A,,Overcast,320,2013-05-28 17:58:00
12:08 PM,57.2,42.8,59,29.84,10.0,NW,18.4,28.8,N/A,,Overcast,310,2013-05-28 18:08:00
12:13 PM,57.2,42.8,59,29.84,10.0,NW,20.7,-,N/A,,Overcast,310,2013-05-28 18:13:00
12:18 PM,59.0,42.8,55,29.84,10.0,NW,20.7,26.5,N/A,,Overcast,310,2013-05-28 18:18:00
12:23 PM,59.0,42.8,55,29.84,10.0,NW,20.7,26.5,N/A,,Overcast,310,2013-05-28 18:23:00
12:58 PM,60.3,42.8,53,29.83,10.0,NW,21.9,28.8,N/A,,Mostly Cloudy,310,2013-05-28 18:58:00
1:08 PM,59.0,42.8,55,29.85,10.0,NNW,19.6,26.5,N/A,,Mostly Cloudy,330,2013-05-28 19:08:00
1:18 PM,60.8,41.0,48,29.84,10.0,NW,20.7,25.3,N/A,,Mostly Cloudy,320,2013-05-28 19:18:00
1:38 PM,62.6,41.0,45,29.84,10.0,NW,24.2,31.1,N/A,,Scattered Clouds,310,2013-05-28 19:38:00
1:58 PM,61.9,40.5,45,29.82,10.0,WNW,18.4,27.6,N/A,,Scattered Clouds,300,2013-05-28 19:58:00
2:08 PM,60.8,39.2,45,29.84,10.0,WNW,20.7,25.3,N/A,,Mostly Cloudy,290,2013-05-28 20:08:00
2:13 PM,62.6,39.2,42,29.84,10.0,WNW,23.0,32.2,N/A,,Mostly Cloudy,300,2013-05-28 20:13:00
2:23 PM,62.6,39.2,42,29.84,10.0,NW,21.9,32.2,N/A,,Scattered Clouds,310,2013-05-28 20:23:00
2:28 PM,62.6,39.2,42,29.84,10.0,NW,21.9,29.9,N/A,,Mostly Cloudy,310,2013-05-28 20:28:00
2:58 PM,63.1,39.9,42,29.82,10.0,NW,21.9,28.8,N/A,,Mostly Cloudy,310,2013-05-28 20:58:00
3:03 PM,62.6,39.2,42,29.84,10.0,NW,23.0,29.9,N/A,,Mostly Cloudy,310,2013-05-28 21:03:00
3:43 PM,64.4,39.2,40,29.84,10.0,WNW,21.9,27.6,N/A,,Mostly Cloudy,300,2013-05-28 21:43:00
3:48 PM,64.4,39.2,40,29.83,10.0,WNW,23.0,28.8,N/A,,Mostly Cloudy,300,2013-05-28 21:48:00
3:53 PM,64.4,37.4,37,29.84,10.0,WNW,20.7,31.1,N/A,,Mostly Cloudy,300,2013-05-28 21:53:00
3:58 PM,64.0,38.1,38,29.80,10.0,NW,24.2,31.1,N/A,,Mostly Cloudy,310,2013-05-28 21:58:00
4:03 PM,64.4,37.4,37,29.83,10.0,NNW,21.9,27.6,N/A,,Mostly Cloudy,330,2013-05-28 22:03:00
4:13 PM,66.2,39.2,37,29.83,10.0,NNW,23.0,27.6,N/A,,Scattered Clouds,330,2013-05-28 22:13:00
4:18 PM,64.4,39.2,40,29.83,10.0,NW,23.0,29.9,N/A,,Mostly Cloudy,320,2013-05-28 22:18:00
4:23 PM,64.4,37.4,37,29.83,10.0,NW,24.2,31.1,N/A,,Scattered Clouds,320,2013-05-28 22:23:00
4:58 PM,66.9,38.1,35,29.80,10.0,NW,20.7,33.4,N/A,,Scattered Clouds,310,2013-05-28 22:58:00
5:33 PM,66.2,39.2,37,29.83,10.0,NW,21.9,31.1,N/A,,Mostly Cloudy,320,2013-05-28 23:33:00
5:58 PM,65.5,38.1,36,29.81,10.0,NW,20.7,29.9,N/A,,Mostly Cloudy,310,2013-05-28 23:58:00
6:08 PM,62.6,39.2,42,29.83,10.0,NW,20.7,26.5,N/A,,Mostly Cloudy,310,2013-05-29 00:08:00
6:13 PM,64.4,39.2,40,29.83,10.0,WNW,24.2,28.8,N/A,,Mostly Cloudy,300,2013-05-29 00:13:00
6:18 PM,64.4,39.2,40,29.83,10.0,NW,20.7,28.8,N/A,,Mostly Cloudy,310,2013-05-29 00:18:00
6:28 PM,64.4,39.2,40,29.83,10.0,NW,23.0,-,N/A,,Overcast,320,2013-05-29 00:28:00
6:58 PM,64.9,39.7,40,29.81,10.0,NW,23.0,28.8,N/A,,Mostly Cloudy,310,2013-05-29 00:58:00
7:58 PM,63.7,38.7,40,29.79,10.0,NW,18.4,26.5,N/A,,Clear,310,2013-05-29 01:58:00
8:58 PM,60.8,39.0,45,29.80,10.0,WNW,11.5,-,N/A,,Clear,300,2013-05-29 02:58:00
9:58 PM,57.6,38.7,49,29.82,10.0,NW,9.2,-,N/A,,Mostly Cloudy,310,2013-05-29 03:58:00
10:58 PM,54.1,39.7,58,29.83,10.0,Calm,Calm,-,N/A,,Clear,0,2013-05-29 04:58:00
11:58 PM,51.8,39.7,63,29.81,10.0,NW,5.8,-,N/A,,Clear,310,2013-05-29 05:58:00